Change the Weather History Date:

Sunday, March 24, 2013

  Actual Average Record
Temperature  
Mean Temperature 25 °F 31 °F  
Max Temperature 30 °F 41 °F 69 °F (1945)
Min Temperature 19 °F 21 °F -19 °F (1965)
Degree Days  
Heating Degree Days 40 34  
Month to date heating degree days 1087 946  
Since 1 July heating degree days 7487 7568  
Cooling Degree Days 0 0  
Month to date cooling degree days 0 0  
Year to date cooling degree days 0 0  
Moisture  
Dew Point 18 °F    
Average Humidity 70    
Maximum Humidity 77    
Minimum Humidity 62    
Precipitation  
Precipitation T in 0.06 in 0.82 in (1988)
Month to date precipitation 1.47 1.16  
Year to date precipitation 4.27 3.20  
Snow  
Snow T in - 3.00 in (1926)
Month to date snowfall 15.3  
Since 1 July snowfall 67.9  
Snow Depth 20.00 in    
Sea Level Pressure  
Sea Level Pressure 30.04 in    
Wind  
Wind Speed 7 mph (NNE)    
Max Wind Speed 15 mph    
Max Gust Speed 22 mph    
Visibility 10 miles    
Events      
T = Trace of Precipitation, MM = Missing Value Source: NWS Daily Summary

Daily Weather History Graph

Daily Weather History Graph

Search for Another Location

Airport or City:

Trip Planner

Search our weather history database for the weather conditions in past years. The results will help you decide how hot, cold, wet, or windy it might be!

Date:

Astronomy

Mar. 24, 2013 Rise Set
Actual Time 6:52 AM CDT 7:16 PM CDT
Civil Twilight 6:23 AM CDT 7:45 PM CDT
Nautical Twilight 5:48 AM CDT 8:20 PM CDT
Astronomical Twilight 5:12 AM CDT 8:57 PM CDT
Moon 4:38 PM CDT (3/24) 5:10 AM CDT (3/24)
Length of Visible Light 13h 22m
Length of Day
12h 23m
Waxing Gibbous, 92% of the Moon is Illuminated
Mar 24
Waxing Gibbous
Mar 27
Full
Apr 2
Last Quarter
Apr 10
New
Apr 18
First Quarter

Hourly Weather History & Observations

Time (CDT) Temp. Windchill Dew Point Humidity Pressure Visibility Wind Dir Wind Speed Gust Speed Precip Events Conditions
12:53 AM 27.0 °F 21.6 °F 19.0 °F 72% 30.13 in 10.0 mi NNE 4.6 mph - N/A   Overcast
1:53 AM 27.0 °F 20.5 °F 19.0 °F 72% 30.12 in 10.0 mi NE 5.8 mph - N/A   Overcast
2:53 AM 27.0 °F 23.0 °F 19.0 °F 72% 30.11 in 10.0 mi NE 3.5 mph - N/A   Overcast
3:53 AM 26.1 °F 17.6 °F 19.0 °F 75% 30.09 in 10.0 mi NE 8.1 mph - N/A   Overcast
4:53 AM 25.0 °F 17.1 °F 18.0 °F 75% 30.10 in 10.0 mi NE 6.9 mph - N/A   Overcast
5:53 AM 24.1 °F 17.0 °F 18.0 °F 77% 30.09 in 10.0 mi NE 5.8 mph - N/A   Overcast
6:35 AM 24.8 °F 16.1 °F 17.6 °F 74% 30.03 in 10.0 mi NNE 8.1 mph - N/A   Overcast
6:53 AM 24.1 °F 17.0 °F 17.1 °F 75% 30.09 in 10.0 mi NE 5.8 mph - N/A   Overcast
7:05 AM 24.8 °F 19.1 °F 17.6 °F 74% 30.02 in 10.0 mi ENE 4.6 mph - N/A   Overcast
7:53 AM 24.1 °F 19.7 °F 17.1 °F 75% 30.10 in 10.0 mi NNE 3.5 mph - N/A   Overcast
8:53 AM 24.1 °F 17.0 °F 17.1 °F 75% 30.09 in 10.0 mi North 5.8 mph - N/A   Overcast
9:53 AM 26.1 °F 17.6 °F 18.0 °F 71% 30.07 in 10.0 mi NNE 8.1 mph - N/A   Overcast
10:53 AM 27.0 °F 18.7 °F 18.0 °F 69% 30.05 in 10.0 mi NE 8.1 mph - N/A   Overcast
11:53 AM 28.9 °F 19.8 °F 19.0 °F 67% 30.03 in 10.0 mi NE 10.4 mph 19.6 mph N/A   Overcast
12:53 PM 30.0 °F 21.7 °F 19.0 °F 64% 30.01 in 10.0 mi NE 9.2 mph - N/A   Overcast
1:53 PM 30.0 °F 21.7 °F 19.9 °F 66% 29.99 in 10.0 mi NE 9.2 mph 17.3 mph N/A   Overcast
2:53 PM 30.0 °F 20.5 °F 19.9 °F 66% 29.97 in 10.0 mi NNE 11.5 mph - N/A   Overcast
3:53 PM 30.0 °F 22.4 °F 19.9 °F 66% 29.96 in 10.0 mi North 8.1 mph - N/A   Overcast
4:53 PM 30.0 °F 21.7 °F 19.9 °F 66% 29.95 in 10.0 mi North 9.2 mph - N/A   Overcast
5:53 PM 30.0 °F 23.2 °F 21.0 °F 69% 29.95 in 10.0 mi NNE 6.9 mph - N/A   Overcast
6:53 PM 28.9 °F 19.2 °F 18.0 °F 64% 29.97 in 10.0 mi NNE 11.5 mph 17.3 mph N/A   Overcast
7:53 PM 27.0 °F 18.0 °F 16.0 °F 63% 29.99 in 10.0 mi North 9.2 mph 17.3 mph N/A   Overcast
8:53 PM 26.1 °F 17.6 °F 15.1 °F 63% 30.00 in 10.0 mi NNE 8.1 mph 16.1 mph N/A   Overcast
9:53 PM 24.1 °F 18.2 °F 14.0 °F 65% 30.01 in 10.0 mi NNE 4.6 mph - N/A   Clear
10:53 PM 21.9 °F 14.5 °F 15.1 °F 75% 30.00 in 10.0 mi North 5.8 mph - N/A   Clear
11:53 PM 21.0 °F 13.4 °F 15.1 °F 78% 30.00 in 10.0 mi North 5.8 mph - N/A   Clear